TimeCET,TemperatureF,Dew PointF,Humidity,Sea Level PressureIn,VisibilityMPH,Wind Direction,Wind SpeedMPH,Gust SpeedMPH,PrecipitationIn,Events,Conditions,WindDirDegrees,DateUTC
1:00 AM,36,35,97,30.25,,East,2.2,,,,,80,2012-11-21 00:00:00
5:15 AM,28.4,28.4,100,30.24,0.2,SW,1.2,-,N/A,Fog,Light Freezing Fog,230,2012-11-21 04:15:00
5:45 AM,28.4,28.4,100,30.24,0.2,Calm,Calm,-,N/A,Fog,Light Freezing Fog,0,2012-11-21 04:45:00
6:00 AM,-9999,-9999,N/A,-9999,0.5,Variable,2.3,-,N/A,Fog,Fog,0,2012-11-21 05:00:00
6:15 AM,28.4,26.6,93,30.24,0.2,Calm,Calm,-,N/A,Fog,Light Freezing Fog,0,2012-11-21 05:15:00
6:45 AM,28.4,26.6,93,30.24,0.2,Calm,Calm,-,N/A,Fog,Light Freezing Fog,0,2012-11-21 05:45:00
7:00 AM,28,27,96,30.26,0,Calm,Calm,,,Fog,Partial Fog,,2012-11-21 06:00:00
7:15 AM,28.4,28.4,100,30.24,0.5,NE,3.5,-,N/A,Fog,Light Freezing Fog,50,2012-11-21 06:15:00
7:38 AM,32.0,32.0,100,30.27,0.9,NNE,2.3,-,N/A,,Partly Cloudy,20,2012-11-21 06:38:00
7:45 AM,32.0,32.0,100,30.24,0.9,NNE,2.3,-,N/A,,Partly Cloudy,20,2012-11-21 06:45:00
8:00 AM,-9999,-9999,N/A,-9999,1.6,Variable,2.3,-,N/A,,Scattered Clouds,0,2012-11-21 07:00:00
8:15 AM,33.8,33.8,100,30.24,1.0,ENE,3.5,-,N/A,,Partly Cloudy,60,2012-11-21 07:15:00
8:45 AM,37.4,37.4,100,30.24,1.1,East,3.5,-,N/A,,Partly Cloudy,80,2012-11-21 07:45:00
9:00 AM,-9999,-9999,N/A,-9999,1.2,Variable,3.5,-,N/A,,Mist,0,2012-11-21 08:00:00
9:15 AM,39.2,37.4,93,30.24,1.4,ENE,5.8,-,N/A,,Partly Cloudy,60,2012-11-21 08:15:00
9:45 AM,39.2,39.2,100,30.24,1.6,ENE,3.5,-,N/A,,Partly Cloudy,70,2012-11-21 08:45:00
10:15 AM,41.0,39.2,93,30.24,1.9,ENE,2.3,-,N/A,,Partly Cloudy,60,2012-11-21 09:15:00
10:45 AM,42.8,39.2,87,30.24,2.5,East,2.3,-,N/A,,Partly Cloudy,80,2012-11-21 09:45:00
11:15 AM,46.4,41.0,81,30.24,3.1,East,1.2,-,N/A,,Partly Cloudy,90,2012-11-21 10:15:00
11:45 AM,48.2,41.0,76,30.24,3.7,SE,1.2,-,N/A,,Partly Cloudy,130,2012-11-21 10:45:00
12:00 PM,-9999,-9999,N/A,-9999,3.1,Variable,3.5,-,N/A,,Mist,0,2012-11-21 11:00:00
12:15 PM,50.0,41.0,71,30.21,3.7,Calm,Calm,-,N/A,,Partly Cloudy,0,2012-11-21 11:15:00
12:45 PM,51.8,41.0,67,30.21,3.7,ESE,1.2,-,N/A,,Partly Cloudy,110,2012-11-21 11:45:00
1:00 PM,51,42,61,30.23,4,ESE,2.2,,,,Partly Cloudy,110,2012-11-21 12:00:00
1:15 PM,51.8,42.8,71,30.21,3.7,Calm,Calm,-,N/A,,Partly Cloudy,0,2012-11-21 12:15:00
1:45 PM,51.8,41.0,67,30.21,3.7,South,2.3,-,N/A,,Partly Cloudy,180,2012-11-21 12:45:00
2:15 PM,51.8,42.8,71,30.21,3.7,SSW,2.3,-,N/A,,Partly Cloudy,210,2012-11-21 13:15:00
2:45 PM,51.8,42.8,71,30.21,3.7,South,1.2,-,N/A,,Partly Cloudy,190,2012-11-21 13:45:00
3:15 PM,50.0,42.8,76,30.21,3.7,SW,1.2,-,N/A,,Partly Cloudy,220,2012-11-21 14:15:00
3:45 PM,48.2,42.8,82,30.21,3.1,SSW,2.3,-,N/A,,Partly Cloudy,200,2012-11-21 14:45:00
4:15 PM,46.4,41.0,81,30.21,2.5,SW,2.3,-,N/A,,Partly Cloudy,220,2012-11-21 15:15:00
4:45 PM,42.8,41.0,93,30.21,2.5,SW,2.3,-,N/A,,Partly Cloudy,230,2012-11-21 15:45:00
5:05 PM,-9999,-9999,N/A,-9999,-9999.0,North,-9999.0,-,N/A,,Unknown,0,2012-11-21 16:05:00
7:00 PM,39,39,98,30.24,,Calm,Calm,,,,,,2012-11-21 18:00:00
10:14 PM,33.8,33.8,100,30.24,-9999.0,North,-9999.0,-,N/A,,Unknown,0,2012-11-21 21:14:00